Time,TemperatureF,DewpointF,PressureIn,WindDirection,WindDirectionDegrees,WindSpeedMPH,WindSpeedGustMPH,Humidity,HourlyPrecipIn,Conditions,Clouds,dailyrainin,SoftwareType,DateUTC
2013-10-22 00:01:00,49.4,47.2,29.78,SSW,198,0.0,0.0,92,0.09,,,0.00,Wunderground v.1.15,2013-10-22 04:01:00,
2013-10-22 00:03:00,49.4,47.5,29.78,SSW,194,0.0,1.0,93,0.07,,,0.01,Wunderground v.1.15,2013-10-22 04:03:00,
2013-10-22 00:05:00,49.3,47.4,29.77,SW,229,0.0,1.0,93,0.07,,,0.01,Wunderground v.1.15,2013-10-22 04:05:00,
2013-10-22 00:08:00,49.3,47.4,29.77,SW,225,0.0,1.0,93,0.07,,,0.01,Wunderground v.1.15,2013-10-22 04:08:00,
2013-10-22 00:11:00,49.3,47.4,29.77,SW,225,0.0,0.0,93,0.07,,,0.01,Wunderground v.1.15,2013-10-22 04:11:00,
2013-10-22 00:17:00,49.2,47.3,29.77,SE,141,0.0,1.0,93,0.08,,,0.02,Wunderground v.1.15,2013-10-22 04:17:00,
2013-10-22 00:22:00,49.2,47.3,29.76,SW,231,0.0,0.0,93,0.16,,,0.04,Wunderground v.1.15,2013-10-22 04:22:00,
2013-10-22 00:28:00,49.2,47.5,29.76,SW,231,0.0,0.0,94,0.12,,,0.05,Wunderground v.1.15,2013-10-22 04:28:00,
2013-10-22 00:33:00,49.1,47.4,29.76,SSE,154,0.0,0.0,94,0.23,,,0.07,Wunderground v.1.15,2013-10-22 04:33:00,
2013-10-22 00:39:00,49.1,47.4,29.76,SSE,153,0.0,0.0,94,0.13,,,0.08,Wunderground v.1.15,2013-10-22 04:39:00,
2013-10-22 00:45:00,49.2,47.5,29.77,SW,231,0.0,1.0,94,0.23,,,0.11,Wunderground v.1.15,2013-10-22 04:45:00,
2013-10-22 00:51:00,49.1,47.4,29.76,SW,226,1.0,1.0,94,0.30,,,0.14,Wunderground v.1.15,2013-10-22 04:51:00,
2013-10-22 00:57:00,48.9,47.0,29.76,ESE,110,1.0,1.0,93,0.14,,,0.16,Wunderground v.1.15,2013-10-22 04:57:00,
2013-10-22 01:03:00,48.9,46.7,29.76,West,274,1.0,3.0,92,0.40,,,0.20,Wunderground v.1.15,2013-10-22 05:03:00,
2013-10-22 01:09:00,48.7,46.5,29.76,SSE,159,1.0,3.0,92,0.31,,,0.23,Wunderground v.1.15,2013-10-22 05:09:00,
2013-10-22 01:15:00,48.7,46.8,29.76,WSW,252,1.0,1.0,93,0.12,,,0.24,Wunderground v.1.15,2013-10-22 05:15:00,
2013-10-22 01:20:00,48.8,46.9,29.77,SE,141,1.0,3.0,93,0.18,,,0.26,Wunderground v.1.15,2013-10-22 05:20:00,
2013-10-22 01:25:00,49.0,47.3,29.76,West,259,2.0,4.0,94,0.16,,,0.27,Wunderground v.1.15,2013-10-22 05:25:00,
2013-10-22 01:31:00,49.3,47.6,29.76,SW,215,2.0,2.0,94,0.34,,,0.30,Wunderground v.1.15,2013-10-22 05:31:00,
2013-10-22 01:36:00,49.5,48.1,29.76,NW,309,1.0,2.0,95,0.18,,,0.32,Wunderground v.1.15,2013-10-22 05:36:00,
2013-10-22 01:41:00,49.7,48.3,29.76,SW,231,1.0,1.0,95,0.10,,,0.32,Wunderground v.1.15,2013-10-22 05:41:00,
2013-10-22 01:47:00,49.8,48.4,29.76,WSW,249,0.0,1.0,95,0.05,,,0.32,Wunderground v.1.15,2013-10-22 05:47:00,
2013-10-22 01:53:00,49.9,48.5,29.76,South,177,0.0,1.0,95,0.04,,,0.33,Wunderground v.1.15,2013-10-22 05:53:00,
2013-10-22 01:58:00,50.0,48.6,29.76,SW,226,0.0,2.0,95,0.04,,,0.33,Wunderground v.1.15,2013-10-22 05:58:00,
2013-10-22 02:03:00,50.1,48.7,29.76,East,94,0.0,0.0,95,0.04,,,0.33,Wunderground v.1.15,2013-10-22 06:03:00,
2013-10-22 02:08:00,50.1,48.7,29.76,SSW,193,0.0,0.0,95,0.00,,,0.33,Wunderground v.1.15,2013-10-22 06:08:00,
2013-10-22 02:14:00,49.6,47.7,29.76,NNE,22,1.0,4.0,93,0.00,,,0.34,Wunderground v.1.15,2013-10-22 06:14:00,
2013-10-22 02:19:00,48.9,46.7,29.76,WSW,256,2.0,4.0,92,0.00,,,0.34,Wunderground v.1.15,2013-10-22 06:19:00,
2013-10-22 02:25:00,47.7,44.3,29.77,NNW,343,1.0,3.0,88,0.00,,,0.34,Wunderground v.1.15,2013-10-22 06:25:00,
2013-10-22 02:30:00,47.0,43.3,29.77,NW,311,1.0,2.0,87,0.00,,,0.34,Wunderground v.1.15,2013-10-22 06:30:00,
2013-10-22 02:35:00,46.6,43.2,29.76,SW,228,1.0,2.0,88,0.00,,,0.34,Wunderground v.1.15,2013-10-22 06:35:00,
2013-10-22 02:41:00,46.2,42.8,29.77,WSW,238,0.0,0.0,88,0.00,,,0.34,Wunderground v.1.15,2013-10-22 06:41:00,
2013-10-22 02:46:00,46.0,42.6,29.77,West,263,0.0,0.0,88,0.00,,,0.35,Wunderground v.1.15,2013-10-22 06:46:00,
2013-10-22 02:52:00,45.7,42.6,29.77,West,259,0.0,0.0,89,0.00,,,0.35,Wunderground v.1.15,2013-10-22 06:52:00,
2013-10-22 02:58:00,45.5,42.4,29.77,ENE,75,0.0,1.0,89,0.06,,,0.36,Wunderground v.1.15,2013-10-22 06:58:00,
2013-10-22 03:03:00,45.5,42.4,29.77,West,262,0.0,0.0,89,0.06,,,0.36,Wunderground v.1.15,2013-10-22 07:03:00,
2013-10-22 03:08:00,45.5,42.7,29.77,WSW,252,0.0,0.0,90,0.04,,,0.36,Wunderground v.1.15,2013-10-22 07:08:00,
2013-10-22 03:13:00,45.4,42.3,29.77,West,264,0.0,2.0,89,0.00,,,0.36,Wunderground v.1.15,2013-10-22 07:13:00,
2013-10-22 03:19:00,45.3,42.2,29.77,NNE,30,0.0,2.0,89,0.00,,,0.36,Wunderground v.1.15,2013-10-22 07:19:00,
2013-10-22 03:24:00,45.2,42.4,29.78,SW,215,0.0,1.0,90,0.00,,,0.37,Wunderground v.1.15,2013-10-22 07:24:00,
2013-10-22 03:30:00,45.0,42.5,29.77,North,353,0.0,0.0,91,0.06,,,0.38,Wunderground v.1.15,2013-10-22 07:30:00,
2013-10-22 03:36:00,44.9,42.4,29.77,SW,215,0.0,0.0,91,0.06,,,0.38,Wunderground v.1.15,2013-10-22 07:36:00,
2013-10-22 03:41:00,44.9,42.7,29.77,SW,224,0.0,0.0,92,0.05,,,0.38,Wunderground v.1.15,2013-10-22 07:41:00,
2013-10-22 03:47:00,44.9,42.7,29.77,SSW,195,0.0,0.0,92,0.00,,,0.38,Wunderground v.1.15,2013-10-22 07:47:00,
2013-10-22 03:53:00,45.0,43.1,29.78,SW,226,0.0,0.0,93,0.00,,,0.38,Wunderground v.1.15,2013-10-22 07:53:00,
2013-10-22 03:58:00,45.1,43.2,29.78,SW,223,0.0,0.0,93,0.00,,,0.38,Wunderground v.1.15,2013-10-22 07:58:00,
2013-10-22 04:04:00,45.3,43.7,29.78,SSE,148,0.0,0.0,94,0.00,,,0.38,Wunderground v.1.15,2013-10-22 08:04:00,
2013-10-22 04:10:00,45.3,42.5,29.78,SW,228,1.0,1.0,90,0.00,,,0.38,Wunderground v.1.15,2013-10-22 08:10:00,
2013-10-22 04:16:00,45.4,42.1,29.78,SSW,198,1.0,5.0,88,0.00,,,0.38,Wunderground v.1.15,2013-10-22 08:16:00,
2013-10-22 04:21:00,45.1,41.8,29.78,SW,226,1.0,2.0,88,0.00,,,0.38,Wunderground v.1.15,2013-10-22 08:21:00,
2013-10-22 04:27:00,44.9,41.6,29.78,WNW,293,1.0,3.0,88,0.00,,,0.38,Wunderground v.1.15,2013-10-22 08:27:00,
2013-10-22 04:32:00,44.8,41.5,29.78,SSW,208,1.0,3.0,88,0.00,,,0.38,Wunderground v.1.15,2013-10-22 08:32:00,
2013-10-22 04:38:00,44.7,41.4,29.78,SW,226,2.0,3.0,88,0.00,,,0.38,Wunderground v.1.15,2013-10-22 08:38:00,
2013-10-22 04:43:00,44.7,41.4,29.79,WSW,239,1.0,3.0,88,0.00,,,0.38,Wunderground v.1.15,2013-10-22 08:43:00,
2013-10-22 04:48:00,44.6,41.3,29.78,SW,220,0.0,3.0,88,0.00,,,0.38,Wunderground v.1.15,2013-10-22 08:48:00,
2013-10-22 04:53:00,44.5,40.9,29.79,West,267,0.0,1.0,87,0.00,,,0.38,Wunderground v.1.15,2013-10-22 08:53:00,
2013-10-22 04:59:00,44.5,40.6,29.79,SSE,148,0.0,2.0,86,0.00,,,0.38,Wunderground v.1.15,2013-10-22 08:59:00,
2013-10-22 05:05:00,44.5,40.9,29.79,SSE,158,1.0,1.0,87,0.00,,,0.38,Wunderground v.1.15,2013-10-22 09:05:00,
2013-10-22 05:10:00,44.4,40.5,29.79,NW,319,1.0,1.0,86,0.00,,,0.38,Wunderground v.1.15,2013-10-22 09:10:00,
2013-10-22 05:16:00,44.4,40.5,29.79,WSW,244,1.0,2.0,86,0.00,,,0.38,Wunderground v.1.15,2013-10-22 09:16:00,
2013-10-22 05:22:00,44.4,40.5,29.79,South,184,0.0,0.0,86,0.00,,,0.38,Wunderground v.1.15,2013-10-22 09:22:00,
2013-10-22 05:27:00,44.4,40.5,29.79,NNW,335,0.0,1.0,86,0.00,,,0.38,Wunderground v.1.15,2013-10-22 09:27:00,
2013-10-22 05:33:00,44.3,40.1,29.79,South,172,0.0,2.0,85,0.00,,,0.38,Wunderground v.1.15,2013-10-22 09:33:00,
2013-10-22 05:38:00,44.3,39.8,29.79,SW,215,1.0,6.0,84,0.00,,,0.38,Wunderground v.1.15,2013-10-22 09:38:00,
2013-10-22 05:44:00,44.3,39.5,29.79,WSW,257,1.0,1.0,83,0.00,,,0.38,Wunderground v.1.15,2013-10-22 09:44:00,
2013-10-22 05:49:00,44.2,39.4,29.79,West,277,0.0,3.0,83,0.00,,,0.38,Wunderground v.1.15,2013-10-22 09:49:00,
2013-10-22 05:55:00,44.1,38.6,29.79,SW,233,1.0,3.0,81,0.00,,,0.38,Wunderground v.1.15,2013-10-22 09:55:00,
2013-10-22 06:00:00,44.0,38.9,29.78,North,358,0.0,0.0,82,0.00,,,0.38,Wunderground v.1.15,2013-10-22 10:00:00,
2013-10-22 06:05:00,43.8,38.3,29.79,West,273,0.0,2.0,81,0.00,,,0.38,Wunderground v.1.15,2013-10-22 10:05:00,
2013-10-22 06:11:00,43.8,38.3,29.79,SW,236,0.0,1.0,81,0.00,,,0.38,Wunderground v.1.15,2013-10-22 10:11:00,
2013-10-22 06:16:00,43.6,38.2,29.79,West,280,0.0,1.0,81,0.00,,,0.38,Wunderground v.1.15,2013-10-22 10:16:00,
2013-10-22 06:21:00,43.5,38.1,29.79,NW,311,1.0,3.0,81,0.00,,,0.38,Wunderground v.1.15,2013-10-22 10:21:00,
2013-10-22 06:28:00,43.3,37.5,29.79,SE,138,1.0,3.0,80,0.00,,,0.38,Wunderground v.1.15,2013-10-22 10:28:00,
2013-10-22 06:34:00,43.2,37.1,29.79,East,79,1.0,1.0,79,0.00,,,0.38,Wunderground v.1.15,2013-10-22 10:34:00,
2013-10-22 06:40:00,43.1,37.3,29.79,SE,134,1.0,1.0,80,0.00,,,0.38,Wunderground v.1.15,2013-10-22 10:40:00,
2013-10-22 06:45:00,43.1,37.3,29.80,West,262,1.0,1.0,80,0.00,,,0.38,Wunderground v.1.15,2013-10-22 10:45:00,
2013-10-22 06:51:00,42.9,37.2,29.80,WNW,285,1.0,1.0,80,0.00,,,0.38,Wunderground v.1.15,2013-10-22 10:51:00,
2013-10-22 06:56:00,42.9,37.2,29.80,SW,232,2.0,7.0,80,0.00,,,0.38,Wunderground v.1.15,2013-10-22 10:56:00,
2013-10-22 07:02:00,42.7,37.0,29.80,South,177,2.0,4.0,80,0.00,,,0.38,Wunderground v.1.15,2013-10-22 11:02:00,
2013-10-22 07:08:00,42.5,36.8,29.80,NNW,345,2.0,4.0,80,0.00,,,0.38,Wunderground v.1.15,2013-10-22 11:08:00,
2013-10-22 07:13:00,42.4,36.7,29.80,NNW,333,1.0,2.0,80,0.00,,,0.38,Wunderground v.1.15,2013-10-22 11:13:00,
2013-10-22 07:19:00,42.1,36.4,29.80,WSW,242,1.0,4.0,80,0.00,,,0.38,Wunderground v.1.15,2013-10-22 11:19:00,
2013-10-22 07:24:00,41.9,35.9,29.80,NNE,15,2.0,8.0,79,0.00,,,0.38,Wunderground v.1.15,2013-10-22 11:24:00,
2013-10-22 07:29:00,41.7,36.0,29.81,WNW,288,2.0,8.0,80,0.00,,,0.38,Wunderground v.1.15,2013-10-22 11:29:00,
2013-10-22 07:35:00,41.3,35.6,29.81,WNW,292,2.0,2.0,80,0.00,,,0.38,Wunderground v.1.15,2013-10-22 11:35:00,
2013-10-22 07:41:00,41.0,35.3,29.81,WSW,240,2.0,2.0,80,0.00,,,0.38,Wunderground v.1.15,2013-10-22 11:41:00,
2013-10-22 07:47:00,40.7,35.0,29.81,SW,225,2.0,5.0,80,0.00,,,0.38,Wunderground v.1.15,2013-10-22 11:47:00,
2013-10-22 07:53:00,40.5,35.1,29.82,SSW,211,2.0,3.0,81,0.00,,,0.38,Wunderground v.1.15,2013-10-22 11:53:00,
2013-10-22 07:58:00,40.3,34.9,29.82,SW,236,2.0,3.0,81,0.00,,,0.38,Wunderground v.1.15,2013-10-22 11:58:00,
2013-10-22 08:04:00,40.2,34.8,29.82,WNW,300,2.0,3.0,81,0.00,,,0.38,Wunderground v.1.15,2013-10-22 12:04:00,
2013-10-22 08:10:00,40.0,34.6,29.82,NNW,335,1.0,5.0,81,0.00,,,0.38,Wunderground v.1.15,2013-10-22 12:10:00,
2013-10-22 08:16:00,39.9,34.2,29.83,WNW,293,1.0,5.0,80,0.00,,,0.38,Wunderground v.1.15,2013-10-22 12:16:00,
2013-10-22 08:21:00,39.9,33.9,29.83,NW,311,1.0,5.0,79,0.00,,,0.38,Wunderground v.1.15,2013-10-22 12:21:00,
2013-10-22 08:26:00,39.9,33.6,29.83,SE,135,2.0,5.0,78,0.00,,,0.38,Wunderground v.1.15,2013-10-22 12:26:00,
2013-10-22 08:32:00,39.8,33.2,29.83,North,357,2.0,4.0,77,0.00,,,0.38,Wunderground v.1.15,2013-10-22 12:32:00,
2013-10-22 08:37:00,39.8,32.8,29.83,NNW,338,2.0,4.0,76,0.00,,,0.38,Wunderground v.1.15,2013-10-22 12:37:00,
2013-10-22 08:43:00,39.7,32.1,29.83,North,8,2.0,4.0,74,0.00,,,0.38,Wunderground v.1.15,2013-10-22 12:43:00,
2013-10-22 08:48:00,39.8,31.5,29.84,NNW,335,2.0,6.0,72,0.00,,,0.38,Wunderground v.1.15,2013-10-22 12:48:00,
2013-10-22 08:54:00,39.9,31.3,29.84,WSW,249,2.0,6.0,71,0.00,,,0.38,Wunderground v.1.15,2013-10-22 12:54:00,
2013-10-22 09:00:00,40.0,31.0,29.84,West,262,2.0,2.0,70,0.00,,,0.38,Wunderground v.1.15,2013-10-22 13:00:00,
2013-10-22 09:06:00,40.1,30.7,29.84,West,277,2.0,4.0,69,0.00,,,0.38,Wunderground v.1.15,2013-10-22 13:06:00,
2013-10-22 09:12:00,40.2,30.5,29.84,NNE,22,2.0,3.0,68,0.00,,,0.38,Wunderground v.1.15,2013-10-22 13:12:00,
2013-10-22 09:17:00,40.3,30.2,29.85,North,354,2.0,4.0,67,0.00,,,0.38,Wunderground v.1.15,2013-10-22 13:17:00,
2013-10-22 09:23:00,40.5,30.4,29.85,SW,236,2.0,12.0,67,0.00,,,0.38,Wunderground v.1.15,2013-10-22 13:23:00,
2013-10-22 09:29:00,40.8,29.9,29.85,North,9,2.0,12.0,65,0.00,,,0.38,Wunderground v.1.15,2013-10-22 13:29:00,
2013-10-22 09:34:00,41.0,29.7,29.85,ESE,106,2.0,4.0,64,0.00,,,0.38,Wunderground v.1.15,2013-10-22 13:34:00,
2013-10-22 09:40:00,41.2,30.3,29.85,SW,225,2.0,2.0,65,0.00,,,0.38,Wunderground v.1.15,2013-10-22 13:40:00,
2013-10-22 09:46:00,41.6,30.7,29.86,East,85,2.0,2.0,65,0.00,,,0.38,Wunderground v.1.15,2013-10-22 13:46:00,
2013-10-22 09:52:00,42.0,30.3,29.86,ESE,103,1.0,4.0,63,0.00,,,0.38,Wunderground v.1.15,2013-10-22 13:52:00,
2013-10-22 09:58:00,42.2,30.5,29.86,SW,235,1.0,4.0,63,0.00,,,0.38,Wunderground v.1.15,2013-10-22 13:58:00,
2013-10-22 10:04:00,42.4,29.9,29.86,South,184,2.0,7.0,61,0.00,,,0.38,Wunderground v.1.15,2013-10-22 14:04:00,
2013-10-22 10:10:00,42.4,29.1,29.86,NNW,332,2.0,4.0,59,0.00,,,0.38,Wunderground v.1.15,2013-10-22 14:10:00,
2013-10-22 10:15:00,42.6,29.3,29.86,SSE,152,3.0,4.0,59,0.00,,,0.38,Wunderground v.1.15,2013-10-22 14:15:00,
2013-10-22 10:20:00,42.7,28.5,29.86,NW,312,3.0,6.0,57,0.00,,,0.38,Wunderground v.1.15,2013-10-22 14:20:00,
2013-10-22 10:25:00,43.0,29.2,29.85,East,79,3.0,6.0,58,0.00,,,0.38,Wunderground v.1.15,2013-10-22 14:25:00,
2013-10-22 10:31:00,43.5,29.3,29.85,SE,145,2.0,4.0,57,0.00,,,0.38,Wunderground v.1.15,2013-10-22 14:31:00,
2013-10-22 10:37:00,43.8,29.1,29.85,WSW,245,3.0,7.0,56,0.00,,,0.38,Wunderground v.1.15,2013-10-22 14:37:00,
2013-10-22 10:42:00,44.0,28.9,29.86,WSW,252,3.0,3.0,55,0.00,,,0.38,Wunderground v.1.15,2013-10-22 14:42:00,
2013-10-22 10:47:00,44.5,29.3,29.86,West,271,2.0,4.0,55,0.00,,,0.38,Wunderground v.1.15,2013-10-22 14:47:00,
2013-10-22 10:53:00,44.7,29.5,29.86,SW,226,2.0,3.0,55,0.00,,,0.38,Wunderground v.1.15,2013-10-22 14:53:00,
2013-10-22 10:58:00,44.8,29.2,29.86,SW,228,2.0,8.0,54,0.00,,,0.38,Wunderground v.1.15,2013-10-22 14:58:00,
2013-10-22 11:03:00,44.6,29.0,29.86,North,349,3.0,4.0,54,0.00,,,0.38,Wunderground v.1.15,2013-10-22 15:03:00,
2013-10-22 11:08:00,44.9,28.8,29.86,West,274,3.0,7.0,53,0.00,,,0.38,Wunderground v.1.15,2013-10-22 15:08:00,
2013-10-22 11:13:00,45.0,28.9,29.86,South,184,3.0,5.0,53,0.00,,,0.38,Wunderground v.1.15,2013-10-22 15:13:00,
2013-10-22 11:19:00,45.2,28.6,29.86,SSW,211,3.0,6.0,52,0.00,,,0.38,Wunderground v.1.15,2013-10-22 15:19:00,
2013-10-22 11:25:00,45.3,28.7,29.86,SSE,155,3.0,5.0,52,0.00,,,0.38,Wunderground v.1.15,2013-10-22 15:25:00,
2013-10-22 11:31:00,45.8,28.7,29.86,NE,56,3.0,3.0,51,0.00,,,0.38,Wunderground v.1.15,2013-10-22 15:31:00,
2013-10-22 11:37:00,45.8,27.7,29.86,West,264,3.0,9.0,49,0.00,,,0.38,Wunderground v.1.15,2013-10-22 15:37:00,
2013-10-22 11:42:00,45.8,27.7,29.86,SW,226,4.0,4.0,49,0.00,,,0.38,Wunderground v.1.15,2013-10-22 15:42:00,
2013-10-22 11:47:00,45.7,28.1,29.86,WNW,290,4.0,12.0,50,0.00,,,0.38,Wunderground v.1.15,2013-10-22 15:47:00,
2013-10-22 11:53:00,46.0,29.3,29.86,ESE,118,4.0,5.0,52,0.00,,,0.38,Wunderground v.1.15,2013-10-22 15:53:00,
2013-10-22 11:59:00,46.1,29.9,29.86,WNW,294,4.0,7.0,53,0.00,,,0.38,Wunderground v.1.15,2013-10-22 15:59:00,
2013-10-22 12:05:00,46.1,30.4,29.86,ESE,122,4.0,4.0,54,0.00,,,0.38,Wunderground v.1.15,2013-10-22 16:05:00,
2013-10-22 12:10:00,46.5,31.2,29.86,West,276,4.0,4.0,55,0.00,,,0.38,Wunderground v.1.15,2013-10-22 16:10:00,
2013-10-22 12:15:00,46.9,31.6,29.85,WSW,248,3.0,10.0,55,0.00,,,0.38,Wunderground v.1.15,2013-10-22 16:15:00,
2013-10-22 12:21:00,46.9,32.0,29.85,West,274,4.0,13.0,56,0.00,,,0.38,Wunderground v.1.15,2013-10-22 16:21:00,
2013-10-22 12:27:00,47.1,32.2,29.85,SE,142,4.0,13.0,56,0.00,,,0.38,Wunderground v.1.15,2013-10-22 16:27:00,
2013-10-22 12:32:00,47.3,32.4,29.85,WSW,252,3.0,5.0,56,0.00,,,0.38,Wunderground v.1.15,2013-10-22 16:32:00,
2013-10-22 12:38:00,47.5,33.0,29.85,NNE,15,4.0,6.0,57,0.00,,,0.38,Wunderground v.1.15,2013-10-22 16:38:00,
2013-10-22 12:43:00,47.2,32.3,29.84,SW,215,5.0,5.0,56,0.00,,,0.38,Wunderground v.1.15,2013-10-22 16:43:00,
2013-10-22 12:49:00,47.5,33.0,29.84,WNW,285,5.0,10.0,57,0.00,,,0.38,Wunderground v.1.15,2013-10-22 16:49:00,
2013-10-22 12:54:00,47.8,32.9,29.84,SSW,201,4.0,13.0,56,0.00,,,0.38,Wunderground v.1.15,2013-10-22 16:54:00,
2013-10-22 12:59:00,48.0,33.0,29.84,SSW,195,4.0,13.0,56,0.00,,,0.38,Wunderground v.1.15,2013-10-22 16:59:00,
2013-10-22 13:05:00,48.3,34.6,29.83,SSE,147,4.0,5.0,59,0.00,,,0.38,Wunderground v.1.15,2013-10-22 17:05:00,
2013-10-22 13:10:00,48.6,33.6,29.83,SSW,205,4.0,7.0,56,0.00,,,0.38,Wunderground v.1.15,2013-10-22 17:10:00,
2013-10-22 13:16:00,48.8,34.7,29.83,WSW,242,4.0,7.0,58,0.00,,,0.38,Wunderground v.1.15,2013-10-22 17:16:00,
2013-10-22 13:21:00,49.5,35.3,29.82,North,360,3.0,5.0,58,0.00,,,0.38,Wunderground v.1.15,2013-10-22 17:21:00,
2013-10-22 13:27:00,50.0,35.8,29.82,North,354,3.0,9.0,58,0.00,,,0.38,Wunderground v.1.15,2013-10-22 17:27:00,
2013-10-22 13:33:00,49.5,35.3,29.82,West,278,3.0,3.0,58,0.00,,,0.38,Wunderground v.1.15,2013-10-22 17:33:00,
2013-10-22 13:39:00,49.2,35.5,29.82,SSW,197,4.0,6.0,59,0.00,,,0.38,Wunderground v.1.15,2013-10-22 17:39:00,
2013-10-22 13:44:00,48.8,35.5,29.81,WNW,300,3.0,4.0,60,0.00,,,0.38,Wunderground v.1.15,2013-10-22 17:44:00,
2013-10-22 13:49:00,48.2,35.4,29.82,SSW,194,4.0,9.0,61,0.00,,,0.38,Wunderground v.1.15,2013-10-22 17:49:00,
2013-10-22 13:55:00,48.2,35.4,29.82,WNW,288,5.0,7.0,61,0.00,,,0.38,Wunderground v.1.15,2013-10-22 17:55:00,
2013-10-22 14:00:00,48.2,35.4,29.81,SSW,201,5.0,11.0,61,0.00,,,0.38,Wunderground v.1.15,2013-10-22 18:00:00,
2013-10-22 14:05:00,47.9,35.5,29.81,SSW,200,4.0,11.0,62,0.00,,,0.38,Wunderground v.1.15,2013-10-22 18:05:00,
2013-10-22 14:11:00,48.4,36.0,29.81,NNW,333,4.0,4.0,62,0.00,,,0.38,Wunderground v.1.15,2013-10-22 18:11:00,
2013-10-22 14:17:00,48.8,35.9,29.81,West,269,4.0,10.0,61,0.00,,,0.38,Wunderground v.1.15,2013-10-22 18:17:00,
2013-10-22 14:22:00,48.8,35.1,29.81,SSW,203,4.0,11.0,59,0.00,,,0.38,Wunderground v.1.15,2013-10-22 18:22:00,
2013-10-22 14:28:00,48.7,34.1,29.81,SSW,195,5.0,11.0,57,0.00,,,0.38,Wunderground v.1.15,2013-10-22 18:28:00,
2013-10-22 14:33:00,49.0,34.0,29.81,West,270,5.0,5.0,56,0.00,,,0.38,Wunderground v.1.15,2013-10-22 18:33:00,
2013-10-22 14:39:00,48.5,33.1,29.81,West,262,5.0,10.0,55,0.00,,,0.38,Wunderground v.1.15,2013-10-22 18:39:00,
2013-10-22 14:44:00,48.3,32.9,29.82,ENE,72,5.0,6.0,55,0.00,,,0.38,Wunderground v.1.15,2013-10-22 18:44:00,
2013-10-22 14:49:00,48.0,32.6,29.82,WNW,285,4.0,6.0,55,0.00,,,0.38,Wunderground v.1.15,2013-10-22 18:49:00,
2013-10-22 14:54:00,47.7,32.8,29.81,West,273,4.0,5.0,56,0.00,,,0.38,Wunderground v.1.15,2013-10-22 18:54:00,
2013-10-22 14:59:00,47.5,33.0,29.82,North,5,4.0,4.0,57,0.00,,,0.38,Wunderground v.1.15,2013-10-22 18:59:00,
2013-10-22 15:04:00,47.5,32.6,29.82,SW,215,4.0,17.0,56,0.00,,,0.38,Wunderground v.1.15,2013-10-22 19:04:00,
2013-10-22 15:11:00,47.5,32.6,29.82,North,359,4.0,4.0,56,0.00,,,0.38,Wunderground v.1.15,2013-10-22 19:11:00,
2013-10-22 15:16:00,47.2,32.7,29.82,SW,217,5.0,9.0,57,0.00,,,0.38,Wunderground v.1.15,2013-10-22 19:16:00,
2013-10-22 15:22:00,47.5,33.0,29.82,West,274,4.0,6.0,57,0.00,,,0.38,Wunderground v.1.15,2013-10-22 19:22:00,
2013-10-22 15:27:00,47.8,32.9,29.82,SW,228,3.0,6.0,56,0.00,,,0.38,Wunderground v.1.15,2013-10-22 19:27:00,
2013-10-22 15:33:00,47.7,33.2,29.82,West,271,4.0,6.0,57,0.00,,,0.38,Wunderground v.1.15,2013-10-22 19:33:00,
2013-10-22 15:38:00,47.9,32.9,29.82,WSW,256,4.0,9.0,56,0.00,,,0.38,Wunderground v.1.15,2013-10-22 19:38:00,
2013-10-22 15:43:00,48.0,33.0,29.82,NE,54,4.0,4.0,56,0.00,,,0.38,Wunderground v.1.15,2013-10-22 19:43:00,
2013-10-22 15:49:00,47.7,32.3,29.82,ENE,60,4.0,8.0,55,0.00,,,0.38,Wunderground v.1.15,2013-10-22 19:49:00,
2013-10-22 15:54:00,47.7,32.3,29.82,NW,319,5.0,6.0,55,0.00,,,0.38,Wunderground v.1.15,2013-10-22 19:54:00,
2013-10-22 15:59:00,47.7,33.2,29.82,WSW,240,4.0,11.0,57,0.00,,,0.38,Wunderground v.1.15,2013-10-22 19:59:00,
2013-10-22 16:04:00,47.6,31.8,29.82,West,266,4.0,5.0,54,0.00,,,0.38,Wunderground v.1.15,2013-10-22 20:04:00,
2013-10-22 16:10:00,47.2,31.4,29.82,NW,307,5.0,5.0,54,0.00,,,0.38,Wunderground v.1.15,2013-10-22 20:10:00,
2013-10-22 16:15:00,47.2,32.3,29.82,WSW,238,4.0,5.0,56,0.00,,,0.38,Wunderground v.1.15,2013-10-22 20:15:00,
2013-10-22 16:20:00,47.1,31.7,29.82,WSW,240,3.0,8.0,55,0.00,,,0.38,Wunderground v.1.15,2013-10-22 20:20:00,
2013-10-22 16:26:00,47.2,31.4,29.82,West,273,3.0,8.0,54,0.00,,,0.38,Wunderground v.1.15,2013-10-22 20:26:00,
2013-10-22 16:31:00,47.0,31.7,29.82,WSW,254,3.0,3.0,55,0.00,,,0.38,Wunderground v.1.15,2013-10-22 20:31:00,
2013-10-22 16:37:00,46.9,31.6,29.82,NNW,330,3.0,7.0,55,0.00,,,0.38,Wunderground v.1.15,2013-10-22 20:37:00,
2013-10-22 16:43:00,46.6,31.3,29.82,NE,36,3.0,6.0,55,0.00,,,0.38,Wunderground v.1.15,2013-10-22 20:43:00,
2013-10-22 16:48:00,46.5,31.2,29.82,NNE,27,3.0,6.0,55,0.00,,,0.38,Wunderground v.1.15,2013-10-22 20:48:00,
2013-10-22 16:53:00,46.4,31.1,29.83,NE,44,2.0,5.0,55,0.00,,,0.38,Wunderground v.1.15,2013-10-22 20:53:00,
2013-10-22 16:59:00,46.4,31.5,29.82,SW,217,2.0,5.0,56,0.00,,,0.38,Wunderground v.1.15,2013-10-22 20:59:00,
2013-10-22 17:04:00,46.4,31.5,29.82,SSW,212,2.0,3.0,56,0.00,,,0.38,Wunderground v.1.15,2013-10-22 21:04:00,
2013-10-22 17:09:00,46.4,31.1,29.83,ESE,106,2.0,7.0,55,0.00,,,0.38,Wunderground v.1.15,2013-10-22 21:09:00,
2013-10-22 17:14:00,46.2,30.9,29.82,WSW,243,3.0,5.0,55,0.00,,,0.38,Wunderground v.1.15,2013-10-22 21:14:00,
2013-10-22 17:20:00,46.0,31.2,29.83,SW,235,2.0,10.0,56,0.00,,,0.38,Wunderground v.1.15,2013-10-22 21:20:00,
2013-10-22 17:26:00,45.9,31.1,29.83,NNW,343,2.0,10.0,56,0.00,,,0.38,Wunderground v.1.15,2013-10-22 21:26:00,
2013-10-22 17:31:00,45.9,31.1,29.83,SSE,162,2.0,4.0,56,0.00,,,0.38,Wunderground v.1.15,2013-10-22 21:31:00,
2013-10-22 17:36:00,45.8,31.0,29.83,WSW,245,2.0,4.0,56,0.00,,,0.38,Wunderground v.1.15,2013-10-22 21:36:00,
2013-10-22 17:42:00,45.7,30.9,29.83,West,259,2.0,2.0,56,0.00,,,0.38,Wunderground v.1.15,2013-10-22 21:42:00,
2013-10-22 17:48:00,45.5,31.1,29.83,South,169,1.0,3.0,57,0.00,,,0.38,Wunderground v.1.15,2013-10-22 21:48:00,
2013-10-22 17:53:00,45.3,31.0,29.83,South,172,1.0,2.0,57,0.00,,,0.38,Wunderground v.1.15,2013-10-22 21:53:00,
2013-10-22 17:59:00,45.2,30.9,29.84,SSE,157,1.0,6.0,57,0.00,,,0.38,Wunderground v.1.15,2013-10-22 21:59:00,
2013-10-22 18:04:00,44.9,31.0,29.83,West,267,1.0,1.0,58,0.00,,,0.38,Wunderground v.1.15,2013-10-22 22:04:00,
2013-10-22 18:10:00,44.7,30.8,29.83,ENE,60,1.0,1.0,58,0.00,,,0.38,Wunderground v.1.15,2013-10-22 22:10:00,
2013-10-22 18:16:00,44.5,30.6,29.84,SW,228,1.0,2.0,58,0.00,,,0.38,Wunderground v.1.15,2013-10-22 22:16:00,
2013-10-22 18:21:00,44.4,30.5,29.84,South,179,1.0,3.0,58,0.00,,,0.38,Wunderground v.1.15,2013-10-22 22:21:00,
2013-10-22 18:27:00,44.2,30.8,29.84,SSW,194,1.0,3.0,59,0.00,,,0.38,Wunderground v.1.15,2013-10-22 22:27:00,
2013-10-22 18:33:00,44.0,31.0,29.84,East,89,1.0,1.0,60,0.00,,,0.38,Wunderground v.1.15,2013-10-22 22:33:00,
2013-10-22 18:39:00,43.9,30.9,29.84,SSW,199,1.0,1.0,60,0.00,,,0.38,Wunderground v.1.15,2013-10-22 22:39:00,
2013-10-22 18:44:00,43.8,30.8,29.84,WNW,300,1.0,5.0,60,0.00,,,0.38,Wunderground v.1.15,2013-10-22 22:44:00,
2013-10-22 18:49:00,43.8,30.8,29.84,WSW,244,1.0,2.0,60,0.00,,,0.38,Wunderground v.1.15,2013-10-22 22:49:00,
2013-10-22 18:55:00,43.7,30.7,29.84,SE,136,1.0,3.0,60,0.00,,,0.38,Wunderground v.1.15,2013-10-22 22:55:00,
2013-10-22 19:01:00,43.6,30.6,29.84,NW,309,1.0,1.0,60,0.00,,,0.38,Wunderground v.1.15,2013-10-22 23:01:00,
2013-10-22 19:07:00,43.6,30.6,29.84,SW,236,1.0,2.0,60,0.00,,,0.38,Wunderground v.1.15,2013-10-22 23:07:00,
2013-10-22 19:12:00,43.5,30.5,29.84,WNW,283,2.0,2.0,60,0.00,,,0.38,Wunderground v.1.15,2013-10-22 23:12:00,
2013-10-22 19:18:00,43.3,30.7,29.84,WNW,290,1.0,2.0,61,0.00,,,0.38,Wunderground v.1.15,2013-10-22 23:18:00,
2013-10-22 19:23:00,43.1,31.0,29.84,West,267,1.0,2.0,62,0.00,,,0.38,Wunderground v.1.15,2013-10-22 23:23:00,
2013-10-22 19:29:00,42.8,31.1,29.84,West,261,0.0,2.0,63,0.00,,,0.38,Wunderground v.1.15,2013-10-22 23:29:00,
2013-10-22 19:34:00,42.6,30.9,29.84,WSW,248,1.0,3.0,63,0.00,,,0.38,Wunderground v.1.15,2013-10-22 23:34:00,
2013-10-22 19:40:00,42.5,30.8,29.84,SSW,205,1.0,1.0,63,0.00,,,0.38,Wunderground v.1.15,2013-10-22 23:40:00,
2013-10-22 19:45:00,42.5,31.2,29.84,SW,218,1.0,1.0,64,0.00,,,0.38,Wunderground v.1.15,2013-10-22 23:45:00,
2013-10-22 19:50:00,42.4,31.1,29.84,SW,231,1.0,1.0,64,0.00,,,0.38,Wunderground v.1.15,2013-10-22 23:50:00,
2013-10-22 19:55:00,42.4,31.1,29.84,SW,215,1.0,5.0,64,0.00,,,0.38,Wunderground v.1.15,2013-10-22 23:55:00,
2013-10-22 20:00:00,42.4,30.7,29.84,West,274,1.0,2.0,63,0.00,,,0.38,Wunderground v.1.15,2013-10-23 00:00:00,
2013-10-22 20:05:00,42.3,30.6,29.84,West,264,1.0,5.0,63,0.00,,,0.38,Wunderground v.1.15,2013-10-23 00:05:00,
2013-10-22 20:10:00,42.4,30.7,29.84,SSW,205,1.0,2.0,63,0.00,,,0.38,Wunderground v.1.15,2013-10-23 00:10:00,
2013-10-22 20:16:00,42.4,30.7,29.84,SSW,205,1.0,2.0,63,0.00,,,0.38,Wunderground v.1.15,2013-10-23 00:16:00,
2013-10-22 20:21:00,42.4,30.7,29.84,SW,220,1.0,1.0,63,0.00,,,0.38,Wunderground v.1.15,2013-10-23 00:21:00,
2013-10-22 20:27:00,42.3,31.0,29.84,SW,215,1.0,3.0,64,0.00,,,0.38,Wunderground v.1.15,2013-10-23 00:27:00,
2013-10-22 20:33:00,42.2,30.5,29.84,West,273,1.0,2.0,63,0.00,,,0.38,Wunderground v.1.15,2013-10-23 00:33:00,
2013-10-22 20:38:00,42.0,30.7,29.84,WNW,297,1.0,2.0,64,0.00,,,0.38,Wunderground v.1.15,2013-10-23 00:38:00,
2013-10-22 20:44:00,42.2,30.5,29.84,WSW,248,1.0,3.0,63,0.00,,,0.38,Wunderground v.1.15,2013-10-23 00:44:00,
2013-10-22 20:50:00,42.3,30.2,29.84,WSW,238,1.0,1.0,62,0.00,,,0.38,Wunderground v.1.15,2013-10-23 00:50:00,
2013-10-22 20:56:00,42.3,29.8,29.84,SW,230,1.0,2.0,61,0.00,,,0.38,Wunderground v.1.15,2013-10-23 00:56:00,
2013-10-22 21:01:00,42.3,29.4,29.84,NNW,347,1.0,1.0,60,0.00,,,0.38,Wunderground v.1.15,2013-10-23 01:01:00,
2013-10-22 21:07:00,42.3,29.4,29.84,SSW,203,1.0,2.0,60,0.00,,,0.38,Wunderground v.1.15,2013-10-23 01:07:00,
2013-10-22 21:13:00,42.3,29.4,29.84,West,271,1.0,1.0,60,0.00,,,0.38,Wunderground v.1.15,2013-10-23 01:13:00,
2013-10-22 21:19:00,42.3,29.4,29.84,WNW,293,0.0,3.0,60,0.00,,,0.38,Wunderground v.1.15,2013-10-23 01:19:00,
2013-10-22 21:24:00,42.3,29.4,29.85,SW,233,1.0,2.0,60,0.00,,,0.38,Wunderground v.1.15,2013-10-23 01:24:00,
2013-10-22 21:29:00,42.4,29.1,29.84,SW,224,1.0,1.0,59,0.00,,,0.38,Wunderground v.1.15,2013-10-23 01:29:00,
2013-10-22 21:35:00,42.5,29.6,29.85,WNW,293,1.0,2.0,60,0.00,,,0.38,Wunderground v.1.15,2013-10-23 01:35:00,
2013-10-22 21:40:00,42.3,29.4,29.85,WNW,290,0.0,1.0,60,0.00,,,0.38,Wunderground v.1.15,2013-10-23 01:40:00,
2013-10-22 21:45:00,42.3,29.8,29.85,WNW,283,0.0,1.0,61,0.00,,,0.38,Wunderground v.1.15,2013-10-23 01:45:00,
2013-10-22 21:51:00,42.3,29.8,29.85,North,352,1.0,1.0,61,0.00,,,0.38,Wunderground v.1.15,2013-10-23 01:51:00,
2013-10-22 21:56:00,42.2,30.1,29.85,West,275,0.0,1.0,62,0.00,,,0.38,Wunderground v.1.15,2013-10-23 01:56:00,
2013-10-22 22:02:00,42.0,29.9,29.85,WSW,249,0.0,2.0,62,0.00,,,0.38,Wunderground v.1.15,2013-10-23 02:02:00,
2013-10-22 22:08:00,41.9,30.2,29.85,SSW,211,1.0,2.0,63,0.00,,,0.38,Wunderground v.1.15,2013-10-23 02:08:00,
2013-10-22 22:13:00,41.9,30.2,29.85,WNW,288,1.0,3.0,63,0.00,,,0.38,Wunderground v.1.15,2013-10-23 02:13:00,
2013-10-22 22:19:00,42.0,30.3,29.85,WSW,252,0.0,3.0,63,0.00,,,0.38,Wunderground v.1.15,2013-10-23 02:19:00,
2013-10-22 22:25:00,41.9,30.6,29.84,NW,312,1.0,2.0,64,0.00,,,0.38,Wunderground v.1.15,2013-10-23 02:25:00,
2013-10-22 22:30:00,41.9,30.6,29.84,North,9,1.0,1.0,64,0.00,,,0.38,Wunderground v.1.15,2013-10-23 02:30:00,
2013-10-22 22:36:00,41.9,30.6,29.84,West,267,1.0,2.0,64,0.00,,,0.38,Wunderground v.1.15,2013-10-23 02:36:00,
2013-10-22 22:42:00,41.9,30.6,29.84,WSW,249,0.0,1.0,64,0.00,,,0.38,Wunderground v.1.15,2013-10-23 02:42:00,
2013-10-22 22:48:00,41.9,30.6,29.84,SSE,162,0.0,1.0,64,0.00,,,0.38,Wunderground v.1.15,2013-10-23 02:48:00,
2013-10-22 22:53:00,42.0,30.3,29.84,North,353,1.0,1.0,63,0.00,,,0.38,Wunderground v.1.15,2013-10-23 02:53:00,
2013-10-22 22:58:00,41.9,30.6,29.84,West,267,1.0,3.0,64,0.00,,,0.38,Wunderground v.1.15,2013-10-23 02:58:00,
2013-10-22 23:04:00,41.9,30.6,29.84,NNW,342,1.0,2.0,64,0.00,,,0.38,Wunderground v.1.15,2013-10-23 03:04:00,
2013-10-22 23:09:00,41.8,30.9,29.84,West,263,1.0,2.0,65,0.00,,,0.38,Wunderground v.1.15,2013-10-23 03:09:00,
2013-10-22 23:15:00,41.6,30.7,29.84,WSW,249,0.0,1.0,65,0.00,,,0.38,Wunderground v.1.15,2013-10-23 03:15:00,
2013-10-22 23:21:00,41.4,30.9,29.84,WSW,255,0.0,2.0,66,0.00,,,0.38,Wunderground v.1.15,2013-10-23 03:21:00,
2013-10-22 23:27:00,41.4,30.5,29.84,WSW,252,0.0,2.0,65,0.00,,,0.38,Wunderground v.1.15,2013-10-23 03:27:00,
2013-10-22 23:32:00,41.5,30.6,29.84,West,270,0.0,0.0,65,0.00,,,0.38,Wunderground v.1.15,2013-10-23 03:32:00,
2013-10-22 23:37:00,41.5,30.6,29.84,SW,228,1.0,1.0,65,0.00,,,0.38,Wunderground v.1.15,2013-10-23 03:37:00,
2013-10-22 23:43:00,41.5,30.6,29.84,SE,125,0.0,0.0,65,0.00,,,0.38,Wunderground v.1.15,2013-10-23 03:43:00,
2013-10-22 23:48:00,41.5,30.6,29.83,WSW,241,0.0,0.0,65,0.00,,,0.38,Wunderground v.1.15,2013-10-23 03:48:00,
2013-10-22 23:53:00,41.6,30.3,29.83,SW,218,0.0,1.0,64,0.00,,,0.38,Wunderground v.1.15,2013-10-23 03:53:00,
2013-10-22 23:59:00,41.5,30.2,29.83,SSW,197,0.0,1.0,64,0.00,,,0.38,Wunderground v.1.15,2013-10-23 03:59:00,